[[{"header":{"parameterUnit":"m.s-1","parameterCategory":1,"la1":30.2991,"la2":30.254,"lo1":-89.0895,"lo2":-89.0444,"dy":0.0017,"dx":0.0017,"nx":28,"ny":28,"refTime":"2023-07-20T03:00:00:Z","depth":0,"parameterNumber":2,"parameterNumberName":"U-component_of_WINDS"},"data":[0,0,0,0,0,0,0,0,0,0,0,0,0,0,0,0,0,0,0,0,0,0,0,0,0,0,0,0,0,0,0,0,0,0,0,0,0,0,0,0,0,0,0,0,0,0,0,0,0,0,0,0,0,0,0,0,0,0,1.6919,1.6921,0,1.7069,1.7071,1.7073,1.7108,1.7107,1.7106,1.7105,1.7263,1.7268,1.7273,0,0,0,0,0,0,0,0,0,0,0,0,0,1.6667,1.6672,1.6919,1.6921,1.6923,1.7069,1.7071,1.7073,1.7108,1.7107,1.7106,1.7104,1.7262,1.7268,1.7274,0,0,0,0,0,0,0,0,0,0,0,0,0,1.6793,1.6673,1.6919,1.6958,1.6963,1.7068,1.7071,1.7074,1.7108,1.7107,1.7105,1.7104,1.726,1.7267,1.7275,1.7354,0,0,1.7298,1.7302,0,0,0,0,0,0,0,0,1.6786,1.6802,1.695,1.6955,1.6961,1.7068,1.704,1.7168,1.7109,1.7053,1.7105,1.7103,1.72,1.7212,1.7244,1.7361,1.7368,1.7299,1.7304,1.7307,1.7309,0,0,0,0,0,0,0,1.6777,1.6796,1.6979,1.6952,1.6959,1.6969,1.6985,1.7065,1.7134,1.7058,1.7061,1.7078,1.7203,1.7237,1.7248,1.737,1.7299,1.7306,1.7311,1.7314,1.7559,1.7561,0,0,0,0,0,0,1.6761,1.6788,1.6974,1.6983,1.6868,1.6975,1.6993,1.7035,1.7133,1.7146,1.7079,1.7079,1.7224,1.7239,1.7254,1.7352,1.7307,1.7314,1.7319,1.7557,1.7559,1.7561,0,0,0,0,0,0,1.6755,1.6777,1.6968,1.6887,1.6912,1.6981,1.7028,1.7039,1.7073,1.7149,1.7162,1.7101,1.7223,1.7243,1.7328,1.7358,1.7318,1.7325,1.7555,1.7558,1.756,1.7549,0,0,0,0,0,0,1.6748,1.6775,1.6804,1.6887,1.6916,1.7038,1.703,1.7043,1.7086,1.7087,1.7172,1.7185,1.7224,1.7316,1.7336,1.7368,1.7331,1.7553,1.7556,1.756,1.7547,1.7551,1.7555,0,0,0,0,0,1.6739,1.6796,1.6806,1.6828,1.6954,1.704,1.7056,1.7098,1.7088,1.7119,1.7168,1.7182,1.7352,1.7325,1.7347,1.7382,1.7551,1.7555,1.7559,1.7545,1.755,1.7554,0,0,0,0,0,0,1.6717,1.6808,1.6819,1.6905,1.6964,1.7045,1.7086,1.7102,1.7167,1.7166,1.7216,1.7235,1.7317,1.7359,1.7327,1.7463,1.7451,1.746,1.7433,1.7438,1.7442,1.743,1.7337,0,0,0,0,0,1.6722,1.6783,1.6859,1.6928,1.6957,1.7016,1.7055,1.7082,1.7146,1.7172,1.7226,1.7289,1.7357,1.74,1.7466,1.7553,1.7573,1.7589,1.7592,1.7595,1.7602,1.7651,1.7659,1.7575,1.7575,1.7575,0,0,1.6733,1.6791,1.6826,1.6925,1.6974,1.7037,1.7037,1.7104,1.7151,1.7182,1.7265,1.7308,1.7381,1.7468,1.7508,1.7505,1.7629,1.76,1.7602,1.7608,1.7656,1.7664,1.7671,1.7578,1.7577,1.7577,0,0,1.6786,1.6835,1.6897,1.6946,1.702,1.7059,1.7073,1.7152,1.7181,1.7265,1.729,1.7348,1.7463,1.7514,1.7555,1.7626,1.7642,1.7647,1.7666,1.7713,1.772,1.7726,1.7751,1.7759,1.7654,1.7654,1.7654,0,1.6791,1.6885,1.6927,1.6992,1.7035,1.7065,1.7129,1.7175,1.7267,1.7296,1.729,1.7434,1.7486,1.7585,1.7602,1.7634,1.7653,1.7637,1.7715,1.7722,1.7728,1.7752,1.7762,1.7654,1.7654,1.7654,1.7654,0,1.6888,1.6953,1.6994,1.708,1.7128,1.7192,1.7245,1.7289,1.7312,1.7352,1.7437,1.75,1.7579,1.7604,1.7628,1.7706,1.7701,1.7705,1.7694,1.7735,1.7759,1.7769,1.7653,1.7653,1.7653,1.7654,0,0,1.693,1.7038,1.7053,1.7092,1.7176,1.7228,1.7293,1.7369,1.7405,1.7468,1.7525,1.7621,1.7624,1.7671,1.7701,1.7742,1.7794,1.7741,1.7743,1.7748,1.7884,1.788,1.789,1.7805,1.7807,1.7809,1.7877,0,1.6992,1.7109,1.7149,1.7246,1.7307,1.7336,1.7394,1.7452,1.7491,1.7549,1.7593,1.766,1.766,1.7688,1.773,1.7779,1.7822,1.7775,1.7859,1.7862,1.7839,1.7903,1.7899,1.796,1.7887,1.7888,1.789,0,1.708,1.7142,1.7245,1.732,1.7347,1.7398,1.747,1.7525,1.7592,1.7618,1.7669,1.7696,1.7767,1.7752,1.7851,1.7817,1.7855,1.7884,1.7887,1.7896,1.7878,1.7913,1.7981,1.799,1.7905,1.7904,1.7903,0,1.71,1.721,1.7285,1.7318,1.7408,1.7443,1.7482,1.7547,1.759,1.7654,1.7683,1.7755,1.7794,1.785,1.7896,1.788,1.799,1.7979,1.8014,1.8013,1.8035,1.8033,1.811,1.806,1.806,1.806,1.806,0,1.7165,1.7226,1.7295,1.7341,1.7411,1.7457,1.7526,1.7567,1.7625,1.768,1.7711,1.7763,1.7821,1.788,1.7917,1.7993,1.8011,1.8034,1.8043,1.8031,1.8028,1.8056,1.8052,1.8062,1.8062,1.8061,1.8061,0,1.7198,1.7247,1.7331,1.7409,1.743,1.7478,1.7546,1.7592,1.7633,1.7703,1.7722,1.7786,1.7857,1.7909,1.8002,1.8026,1.8108,1.8117,1.8084,1.8089,1.812,1.8116,1.8217,1.8233,1.8173,1.8174,1.8174,0,1.7236,1.7284,1.7367,1.7405,1.7444,1.7506,1.755,1.7597,1.7642,1.7721,1.7758,1.7832,1.7893,1.8006,1.8062,1.8133,1.8144,1.8174,1.8155,1.8141,1.8144,1.814,1.8145,1.8177,1.8177,1.8178,1.8178,0,1.7297,1.7319,1.738,1.7449,1.75,1.7557,1.7615,1.7645,1.7703,1.7751,1.7824,1.7871,1.7965,1.8038,1.8115,1.8157,1.8177,1.8183,1.8195,1.8183,1.8162,1.8173,1.8091,1.8181,1.8181,1.818,1.818,1.818,1.7334,1.7377,1.7442,1.7509,1.7557,1.761,1.7657,1.7703,1.7764,1.7843,1.7869,1.7944,1.801,1.8114,1.8157,1.8218,1.8217,1.8234,1.8238,1.8241,1.824,1.8152,1.8232,1.8232,1.8232,1.8232,1.8232,0,1.7396,1.7439,1.75,1.7579,1.7632,1.7645,1.771,1.7753,1.7818,1.7878,1.7937,1.802,1.8091,1.8152,1.8225,1.8262,1.8273,1.8279,1.8277,1.8286,1.8238,1.822,1.8269,1.8269,1.8269,1.8269,1.8269,1.8269,1.7435,1.7509,1.7538,1.7637,1.768,1.7753,1.7788,1.7838,1.7885,1.7976,1.8035,1.8073,1.8133,1.8211,1.8277,1.8293,1.8318,1.8322,1.8341,1.8294,1.829,1.8286,1.8269,1.8328,1.8328,1.8384,1.8385,1.8385]},{"header":{"parameterUnit":"m.s-1","parameterCategory":1,"la1":30.2991,"la2":30.254,"lo1":-89.0895,"lo2":-89.0444,"dy":0.0017,"dx":0.0017,"nx":28,"ny":28,"refTime":"2023-07-20T03:00:00:Z","depth":0,"parameterNumber":3,"parameterNumberName":"V-component_of_WINDS"},"data":[0,0,0,0,0,0,0,0,0,0,0,0,0,0,0,0,0,0,0,0,0,0,0,0,0,0,0,0,0,0,0,0,0,0,0,0,0,0,0,0,0,0,0,0,0,0,0,0,0,0,0,0,0,0,0,0,0,0,4.4702,4.4702,0,4.4709,4.471,4.471,4.4704,4.4704,4.4703,4.4703,4.4708,4.4708,4.4708,0,0,0,0,0,0,0,0,0,0,0,0,0,4.4678,4.4678,4.4702,4.4702,4.4702,4.4709,4.471,4.471,4.4704,4.4704,4.4703,4.4703,4.4708,4.4708,4.4708,0,0,0,0,0,0,0,0,0,0,0,0,0,4.4687,4.4679,4.4702,4.47,4.47,4.4709,4.471,4.471,4.4704,4.4704,4.4703,4.4703,4.4707,4.4708,4.4708,4.4719,0,0,4.471,4.471,0,0,0,0,0,0,0,0,4.4687,4.4688,4.47,4.47,4.47,4.4705,4.4703,4.4713,4.4704,4.4702,4.4703,4.4703,4.4707,4.4708,4.471,4.4719,4.4719,4.471,4.471,4.4711,4.4711,0,0,0,0,0,0,0,4.4686,4.4688,4.4705,4.4701,4.4701,4.4697,4.4698,4.4705,4.4707,4.4703,4.4702,4.4703,4.4707,4.4709,4.471,4.4719,4.471,4.4711,4.4711,4.4711,4.4734,4.4734,0,0,0,0,0,0,4.4686,4.4687,4.4705,4.4705,4.4693,4.4698,4.4699,4.4704,4.4707,4.4707,4.4704,4.4703,4.4708,4.4709,4.471,4.472,4.4711,4.4711,4.4711,4.4733,4.4734,4.4734,0,0,0,0,0,0,4.4686,4.4688,4.4704,4.4696,4.4698,4.4699,4.4705,4.4704,4.4707,4.4707,4.4707,4.4706,4.4708,4.4709,4.4716,4.472,4.4711,4.4712,4.4733,4.4734,4.4734,4.4742,0,0,0,0,0,0,4.4685,4.4688,4.4693,4.4696,4.4698,4.4712,4.4705,4.4705,4.4708,4.4707,4.4709,4.4709,4.4708,4.4715,4.4717,4.4721,4.4712,4.4733,4.4733,4.4734,4.4741,4.4742,4.4744,0,0,0,0,0,4.4684,4.4695,4.4693,4.4695,4.4705,4.4712,4.4714,4.4713,4.4709,4.4713,4.4712,4.4709,4.472,4.4716,4.4717,4.4722,4.4733,4.4733,4.4734,4.4741,4.4742,4.4744,0,0,0,0,0,0,4.4692,4.4695,4.4694,4.4706,4.4709,4.4712,4.4717,4.4715,4.4718,4.4717,4.4715,4.4715,4.4722,4.4723,4.4719,4.473,4.4725,4.4726,4.473,4.4731,4.4732,4.4732,4.4713,0,0,0,0,0,4.4695,4.4702,4.4704,4.4715,4.4716,4.4716,4.472,4.4718,4.4721,4.4722,4.4722,4.4724,4.4727,4.4729,4.4732,4.4741,4.474,4.4744,4.4746,4.4746,4.4747,4.4749,4.475,4.4736,4.4736,4.4736,0,0,4.4702,4.4705,4.4709,4.4716,4.4719,4.4724,4.4718,4.4724,4.4727,4.4722,4.4729,4.4729,4.473,4.4737,4.474,4.4738,4.4751,4.4747,4.4748,4.4748,4.475,4.4751,4.4752,4.4737,4.4737,4.4737,0,0,4.4717,4.472,4.4728,4.473,4.4733,4.4733,4.4734,4.4737,4.4737,4.4743,4.4739,4.4741,4.4748,4.4748,4.4749,4.476,4.4757,4.4761,4.4767,4.4769,4.477,4.4771,4.4774,4.4775,4.4762,4.4762,4.4762,0,4.4724,4.4733,4.4733,4.4739,4.4741,4.4737,4.4743,4.4745,4.4748,4.4749,4.4746,4.4752,4.4753,4.4759,4.4761,4.4763,4.4763,4.4761,4.4771,4.4771,4.4772,4.4774,4.4775,4.4763,4.4762,4.4762,4.4762,0,4.4741,4.4747,4.4753,4.4757,4.4759,4.4766,4.4764,4.4767,4.4764,4.4763,4.4768,4.4769,4.4771,4.4772,4.477,4.4777,4.4775,4.4771,4.4766,4.4774,4.4776,4.4777,4.4763,4.4763,4.4763,4.4763,0,0,4.4763,4.4764,4.4766,4.4766,4.4768,4.4772,4.4776,4.4779,4.478,4.4782,4.4784,4.4789,4.4785,4.4786,4.4783,4.4785,4.4791,4.4781,4.4781,4.4782,4.4796,4.4798,4.4799,4.4789,4.4789,4.4789,4.4796,0,4.4776,4.4785,4.4783,4.4792,4.4796,4.4791,4.4794,4.4795,4.4793,4.4795,4.4793,4.4795,4.4791,4.4791,4.4793,4.479,4.4794,4.479,4.479,4.479,4.4789,4.4801,4.4803,4.481,4.4796,4.4797,4.4797,0,4.4793,4.4795,4.4804,4.4803,4.4804,4.4808,4.4809,4.4811,4.481,4.4809,4.4809,4.4805,4.4807,4.4802,4.4804,4.4801,4.4801,4.4799,4.4799,4.4799,4.4793,4.4799,4.4812,4.4812,4.4798,4.4798,4.4798,0,4.4805,4.481,4.4816,4.4816,4.4816,4.4818,4.4817,4.4816,4.4817,4.4817,4.4817,4.4817,4.4816,4.4816,4.4811,4.4808,4.4813,4.4808,4.481,4.481,4.4812,4.4811,4.4823,4.4813,4.4813,4.4812,4.4812,0,4.482,4.4825,4.4821,4.4824,4.4829,4.4825,4.483,4.4828,4.4827,4.4828,4.4824,4.4825,4.482,4.4819,4.4816,4.4817,4.4817,4.4815,4.4814,4.4815,4.4815,4.4814,4.4813,4.4813,4.4813,4.4813,4.4813,0,4.4834,4.4832,4.4837,4.4835,4.4835,4.4838,4.4836,4.4838,4.4835,4.4837,4.4837,4.4833,4.4832,4.4828,4.4826,4.4824,4.4826,4.4824,4.4826,4.4825,4.4827,4.4827,4.4838,4.4839,4.4829,4.4829,4.4829,0,4.4843,4.4847,4.4845,4.4846,4.4846,4.4847,4.4848,4.4843,4.4844,4.4842,4.4843,4.4842,4.4841,4.484,4.4836,4.4834,4.4832,4.4836,4.4832,4.4832,4.483,4.483,4.483,4.4837,4.4837,4.4837,4.4837,0,4.4859,4.4857,4.4858,4.4858,4.4859,4.4858,4.4858,4.4858,4.4853,4.4854,4.4853,4.4852,4.485,4.4849,4.4846,4.4843,4.4839,4.4839,4.4839,4.484,4.484,4.4839,4.4828,4.4838,4.4838,4.4838,4.4838,4.4838,4.487,4.4872,4.487,4.4871,4.487,4.4869,4.487,4.4867,4.4867,4.4865,4.4863,4.4862,4.4858,4.4854,4.4852,4.485,4.4848,4.4849,4.4849,4.4849,4.4849,4.4841,4.485,4.485,4.485,4.485,4.485,0,4.4883,4.4882,4.4883,4.4881,4.4881,4.4878,4.4876,4.4876,4.4876,4.4873,4.4872,4.487,4.4868,4.4863,4.486,4.486,4.4858,4.4859,4.4859,4.4858,4.4852,4.4851,4.4861,4.4861,4.4861,4.4861,4.4861,4.4861,4.4891,4.4893,4.4891,4.4892,4.489,4.489,4.4889,4.4887,4.4885,4.4884,4.4882,4.4879,4.4875,4.4871,4.4869,4.4867,4.4866,4.4868,4.4866,4.486,4.4859,4.4858,4.4857,4.4868,4.4868,4.4872,4.4872,4.4872]}]]